EW3708 Weather Reports


Display with metric or nautical units.
time (UTC)temp
F
wind
direction
speed
MPH
gust
MPH
rain 1hr
in
rain 24hr
in
rain mn
in
humidity
%
barometer
mb
20260831014550 67 44 0.0 0.0 0.00 0.01 0.01 91 1019.3
20260831013050 67 44 0.0 0.0 0.00 0.01 0.01 91 1019.3
20260831011551 67 44 0.0 0.0 0.00 0.01 0.01 90 1019.2
20260831010121 68 44 0.0 0.0 0.00 0.01 0.01 90 1019.1
20260831004551 68 44 0.0 0.0 0.01 0.01 0.01 89 1018.7
20260831003047 68 44 0.0 0.0 0.01 0.01 0.01 89 1018.5
20260831001558 69 44 0.0 0.0 0.01 0.01 0.01 88 1018.6
20260831000047 69 44 0.0 1.0 0.01 0.01 0.01 86 1018.5
20260830234546 70 44 0.0 1.0 0.00 0.00 0.00 84 1018.3
20260830233046 71 44 0.0 1.0 0.00 0.00 0.00 82 1018.0
20260830231546 71 44 0.0 1.0 0.00 0.00 0.00 82 1017.9
20260830230050 71 159 0.0 2.0 0.00 0.00 0.00 81 1017.8
20260830224551 71 159 0.0 1.0 0.00 0.00 0.00 80 1018.0
20260830223044 72 159 0.0 2.0 0.00 0.00 0.00 80 1018.0
20260830221544 72 159 0.0 1.0 0.00 0.00 0.00 80 1018.1
20260830220047 72 159 0.0 1.0 0.00 0.00 0.00 80 1018.1
20260830214544 72 159 0.0 1.0 0.00 0.00 0.00 79 1017.9
20260830213040 72 159 0.0 0.0 0.00 0.00 0.00 79 1017.9
20260830211540 73 159 0.0 2.0 0.00 0.00 0.00 78 1017.7
20260830210039 73 161 0.0 1.0 0.00 0.00 0.00 78 1017.8
20260830204539 74 161 0.0 2.0 0.00 0.00 0.00 76 1017.9
20260830203037 74 136 0.0 2.0 0.00 0.00 0.00 76 1017.8
20260830201535 74 132 0.0 3.0 0.00 0.00 0.00 74 1018.0
20260830200034 74 246 0.0 3.0 0.00 0.00 0.00 73 1018.1
20260830194535 75 323 0.0 3.0 0.00 0.00 0.00 72 1018.2
20260830193031 76 199 0.0 3.0 0.00 0.00 0.00 72 1018.2
20260830191530 76 140 1.0 5.0 0.00 0.00 0.00 70 1018.2
20260830190031 76 302 2.0 8.0 0.00 0.00 0.00 70 1018.4
20260830184527 76 144 1.0 4.0 0.00 0.00 0.00 72 1018.6
20260830183025 76 5 0.0 4.0 0.00 0.00 0.00 73 1018.7
20260830181535 77 151 2.0 5.0 0.00 0.00 0.00 71 1019.0
20260830180036 76 207 1.0 4.0 0.00 0.00 0.00 74 1018.8
20260830174526 76 205 1.0 4.0 0.00 0.00 0.00 74 1019.1
20260830173025 74 217 1.0 4.0 0.00 0.00 0.00 77 1019.0
20260830171518 73 231 0.0 4.0 0.00 0.00 0.00 80 1019.4
20260830170012 72 164 1.0 3.0 0.00 0.00 0.00 80 1019.6
20260830164509 72 360 0.0 2.0 0.00 0.00 0.00 82 1019.6
20260830163007 70 202 0.0 3.0 0.00 0.00 0.00 84 1019.7
20260830161505 69 172 1.0 3.0 0.00 0.00 0.00 84 1019.8
20260830160004 69 126 3.0 5.0 0.00 0.00 0.00 83 1020.0
20260830154502 69 138 2.0 7.0 0.00 0.00 0.00 83 1020.1
20260830153059 69 142 1.0 7.0 0.00 0.00 0.00 84 1020.1
20260830151557 68 268 3.0 8.0 0.00 0.00 0.00 86 1020.3
20260830150054 67 158 2.0 4.0 0.00 0.00 0.00 86 1020.6
20260830144514 67 115 2.0 7.0 0.00 0.00 0.00 85 1020.6
20260830143011 67 231 0.0 3.0 0.00 0.00 0.00 85 1020.5
20260830141507 66 121 1.0 5.0 0.00 0.00 0.00 83 1020.7
20260830140005 66 221 0.0 3.0 0.00 0.00 0.00 82 1020.9
20260830134507 66 126 0.0 4.0 0.00 0.00 0.00 82 1020.9
20260830133103 65 130 1.0 3.0 0.00 0.00 0.00 80 1021.0
20260830131614 64 168 1.0 4.0 0.00 0.00 0.00 81 1021.0
20260830130101 63 165 0.0 2.0 0.00 0.00 0.00 83 1021.1
20260830124550 61 154 1.0 3.0 0.00 0.00 0.00 86 1021.2
20260830123052 59 197 1.0 2.0 0.00 0.00 0.00 91 1021.5
20260830121543 58 197 0.0 0.0 0.00 0.00 0.00 92 1021.5
20260830120039 57 197 0.0 1.0 0.00 0.00 0.00 92 1021.7
20260830114547 56 197 0.0 0.0 0.00 0.00 0.00 92 1021.8
20260830113040 56 197 0.0 1.0 0.00 0.00 0.00 92 1021.8
20260830111535 56 197 0.0 0.0 0.00 0.00 0.00 92 1021.9
20260830110041 55 197 0.0 0.0 0.00 0.00 0.00 92 1021.9
20260830104533 55 197 0.0 1.0 0.00 0.00 0.00 92 1021.9
20260830103033 55 197 0.0 0.0 0.00 0.00 0.00 91 1021.8
20260830101533 55 197 0.0 0.0 0.00 0.00 0.00 92 1021.8
20260830100031 55 197 0.0 0.0 0.00 0.00 0.00 92 1021.7
20260830094532 55 197 0.0 0.0 0.00 0.00 0.00 91 1021.7
20260830093028 55 197 0.0 1.0 0.00 0.00 0.00 92 1021.9
20260830091528 55 197 0.0 1.0 0.00 0.00 0.00 92 1022.0
20260830090029 55 197 0.0 1.0 0.00 0.00 0.00 92 1022.0
20260830084527 55 197 0.0 0.0 0.00 0.00 0.00 91 1022.1
20260830083024 54 197 0.0 1.0 0.00 0.00 0.00 91 1022.2
20260830081526 54 197 0.0 1.0 0.00 0.00 0.00 91 1022.2
20260830080023 55 197 0.0 0.0 0.00 0.00 0.00 91 1022.3
20260830074538 55 197 0.0 0.0 0.00 0.00 0.00 91 1022.4
20260830073020 55 197 0.0 0.0 0.00 0.00 0.00 91 1022.3
20260830071519 54 197 0.0 0.0 0.00 0.00 0.00 91 1022.2
20260830070018 54 197 0.0 1.0 0.00 0.00 0.00 91 1022.5
20260830064516 54 197 0.0 1.0 0.00 0.00 0.00 91 1022.5
20260830063016 54 197 0.0 1.0 0.00 0.00 0.00 91 1022.3
20260830061523 54 197 0.0 0.0 0.00 0.00 0.00 91 1022.4
20260830060013 54 197 0.0 0.0 0.00 0.00 0.00 90 1022.4
20260830054521 54 197 0.0 0.0 0.00 0.00 0.00 90 1022.7
20260830053012 54 197 0.0 0.0 0.00 0.00 0.00 90 1022.6
20260830051528 54 197 0.0 1.0 0.00 0.00 0.00 90 1022.5
20260830050010 54 197 0.0 0.0 0.00 0.00 0.00 90 1022.6
20260830044508 54 197 0.0 0.0 0.00 0.00 0.00 89 1022.6
20260830043006 55 197 0.0 0.0 0.00 0.00 0.00 89 1022.5
20260830041509 55 197 0.0 0.0 0.00 0.00 0.00 89 1022.3
20260830040001 55 197 0.0 0.0 0.00 0.00 0.00 89 1022.4
20260830034501 56 197 0.0 0.0 0.00 0.00 0.00 89 1022.5
20260830033103 56 197 0.0 0.0 0.00 0.00 0.00 88 1022.5
20260830031600 56 197 0.0 0.0 0.00 0.00 0.00 88 1022.4
20260830030159 57 197 0.0 0.0 0.00 0.00 0.00 88 1022.5
20260830024601 57 197 0.0 0.0 0.00 0.00 0.00 87 1022.5
20260830023117 57 197 0.0 0.0 0.00 0.00 0.00 87 1022.4
20260830021604 58 197 0.0 0.0 0.00 0.00 0.00 86 1022.3
20260830020109 58 197 0.0 0.0 0.00 0.00 0.00 85 1022.2